Regional Weather Roundup
Issued by NWS

Home | Current Version | Previous Version | Text Only | Print | Product List | Glossary On
Versions: 1 2 3 4 5 6 7 8 9 10 11 12 13 14 15 16 17 18 19 20 21 22 23 24 25 26 27 28 29 30 31 32 33 34 35 36 37 38 39 40 41 42 43 44 45 46 47 48 49 50
000
ASUS44 KFWD 311215
RWRTX
NORTH TEXAS HOURLY WEATHER ROUNDUP
NATIONAL WEATHER SERVICE FORT WORTH TX
700 AM CDT TUE MAR 31 2015

NOTE: "FAIR" INDICATES FEW OR NO CLOUDS BELOW 12,000 FEET WITH NO
SIGNIFICANT WEATHER AND/OR OBSTRUCTIONS TO VISIBILITY.

TXZ118-119-311300-
DALLAS/FORT WORTH METROPLEX

CITY           SKY/WX    TMP DP  RH WIND       PRES   REMARKS
DFW AIRPORT    PTCLDY    64  62  93 S10       29.98R
6HR MIN TEMP:  64; 6HR MAX TEMP:  67;

DALLAS LOVE    MOCLDY    67  62  84 S8        29.99R
6HR MIN TEMP:  66; 6HR MAX TEMP:  69;

FTW MEACHAM    PTCLDY    64  61  90 S7        29.99R
6HR MIN TEMP:  64; 6HR MAX TEMP:  70;

DAL-EXECUTIVE  CLOUDY    66  62  87 S8        29.99R
6HR MIN TEMP:  65; 6HR MAX TEMP:  67;

FTW-ALLIANCE   PTCLDY    63  61  93 S6        29.98R
6HR MIN TEMP:  63; 6HR MAX TEMP:  69;

FTW-NAS-JRB    PTCLDY    65  61  87 S7        30.03R
6HR MIN TEMP:  65; 6HR MAX TEMP:  70;

FTW-SPINKS     MOCLDY    64  63  94 S9        30.00S
ARLINGTON      MOCLDY    65  61  87 S6        30.00R
6HR MIN TEMP:  65; 6HR MAX TEMP:  68;

GRAND PRAIRIE  MOCLDY    64  64 100 S7        30.01
MESQUITE       CLOUDY    64  63  94 S13       30.01R
LANCASTER      CLOUDY    64  61  88 S7        30.01S
6HR MIN TEMP:  62; 6HR MAX TEMP:  65;

$$

TXZ091>094-102>105-117-120-121-131>134-311300-
NORTH CENTRAL TEXAS

CITY           SKY/WX    TMP DP  RH WIND       PRES   REMARKS
SHRMAN/DENISON CLEAR     64  63  98 S8        29.98R
6HR MIN TEMP:  63; 6HR MAX TEMP:  68;

GAINESVILLE    CLEAR     58  58  99 S5        29.99R FOG
6HR MIN TEMP:  58; 6HR MAX TEMP:  64;

BOWIE          CLEAR     61  60  97 SE3       29.96S
6HR MIN TEMP:  60; 6HR MAX TEMP:  66;

BRIDGEPORT     CLEAR     61  61 100 SW6       29.99S
6HR MIN TEMP:  61; 6HR MAX TEMP:  70;

DECATUR        CLEAR     64  61  88 S10       29.97S
6HR MIN TEMP:  64; 6HR MAX TEMP:  68;

DENTON         CLEAR     62  61  96 S9        29.97R
6HR MIN TEMP:  61; 6HR MAX TEMP:  67;

MCKINNEY       PTCLDY    63  61  93 S7        29.98R
6HR MIN TEMP:  59; 6HR MAX TEMP:  64;

GREENVILLE     PTCLDY    63  61  94 S8        29.99S
TERRELL        CLOUDY    67  63  87 S15       30.01S
6HR MIN TEMP:  65; 6HR MAX TEMP:  68;

WAXAHACHIE     CLOUDY    65  65  97 S12       30.01S
6HR MIN TEMP:  63; 6HR MAX TEMP:  65;

CLEBURNE       CLOUDY    64  64 100 S6        30.02R
GRANBURY         N/A     65  61  88 SE6       30.00S
6HR MIN TEMP:  64; 6HR MAX TEMP:  70;

$$

TXZ083>090-098>101-113>116-127>130-139>142-154-155-311300-
WESTERN NORTH TEXAS

CITY           SKY/WX    TMP DP  RH WIND       PRES   REMARKS
WICHITA FALLS  PTCLDY    57  56  96 S9        29.94S FOG
6HR MIN TEMP:  54; 6HR MAX TEMP:  61;

WF-KICKAPOO    CLEAR     58  57  96 S3        29.96R FOG
6HR MIN TEMP:  57; 6HR MAX TEMP:  64;

VERNON           N/A     52  48  86 S6        29.94F VSB 1/4
6HR MIN TEMP:  52; 6HR MAX TEMP:  67;

ABILENE        PTCLDY    65  60  84 SW9       29.98S
6HR MIN TEMP:  65; 6HR MAX TEMP:  70;

ABILENE-DYESS  PTCLDY    65  61  85 SW9       29.97R
6HR MIN TEMP:  63; 6HR MAX TEMP:  68;

BRECKENRIDGE   PTCLDY    64  61  88 S6        29.98R
6HR MIN TEMP:  64; 6HR MAX TEMP:  71;

GRAHAM         CLEAR     63  61  93 SE3       29.97R
6HR MIN TEMP:  63; 6HR MAX TEMP:  68;

MINERAL WELLS  PTCLDY    60  58  92 SE6       29.97R
6HR MIN TEMP:  60; 6HR MAX TEMP:  68;

STEPHENVILLE   MOCLDY    61  59  91 CALM      30.03R
6HR MIN TEMP:  61; 6HR MAX TEMP:  67;

COMANCHE       MOCLDY    65  65 100 SW9       30.00S
6HR MIN TEMP:  62; 6HR MAX TEMP:  68;

BROWNWOOD      CLOUDY    63  63 100 CALM      30.01R
COLEMAN        PTCLDY    62  60  96 S6        30.01R
6HR MIN TEMP:  61; 6HR MAX TEMP:  67;

BRADY          CLOUDY    64  64 100 S9        30.01R
$$

TXZ143>147-156>162-174-175-311300-
CENTRAL TEXAS

CITY           SKY/WX    TMP DP  RH WIND       PRES   REMARKS
WACO           CLOUDY    66  63  90 S15       30.01R
6HR MIN TEMP:  64; 6HR MAX TEMP:  67;

WACO-MCGREGOR  CLOUDY    66  59  77 S9        30.03R
6HR MIN TEMP:  66; 6HR MAX TEMP:  70;

HILLSBORO      CLOUDY    67  63  87 S9        30.01S
6HR MIN TEMP:  64; 6HR MAX TEMP:  68;

CORSICANA      CLOUDY    66  63  90 SW9       30.04R
6HR MIN TEMP:  64; 6HR MAX TEMP:  67;

MEXIA          CLOUDY    64  63  95 S8        30.03R
6HR MIN TEMP:  63; 6HR MAX TEMP:  66;

HEARNE         CLOUDY    66  61  85 S10       30.06R
6HR MIN TEMP:  64; 6HR MAX TEMP:  66;

CAMERON        CLOUDY    67  64  88 S6        30.04R
6HR MIN TEMP:  65; 6HR MAX TEMP:  67;

TEMPLE         CLOUDY    64  61  88 S14       30.02R
6HR MIN TEMP:  64; 6HR MAX TEMP:  66;

KILLEEN        CLOUDY    65  64  94 S8        30.02R
6HR MIN TEMP:  65; 6HR MAX TEMP:  67;

KILLEEN-SKYLRK CLOUDY    66  61  82 MISG      30.02R
6HR MIN TEMP:  66; 6HR MAX TEMP:  66;

FORT HOOD      CLOUDY    67  63  89 S8        30.02R
6HR MIN TEMP:  66; 6HR MAX TEMP:  68;

GATESVILLE     CLOUDY    68  63  83 S9        30.03S
HAMILTON       CLOUDY    67  65  95 SW15G21   30.01S
6HR MIN TEMP:  64; 6HR MAX TEMP:  67;

$$

TXZ095>097-106>112-122>126-135>138-148>153-164>167-311300-
EAST TEXAS

CITY           SKY/WX    TMP DP  RH WIND       PRES   REMARKS
SULPHUR SPRNGS PTCLDY    64  63  94 S10       30.01F
6HR MIN TEMP:  64; 6HR MAX TEMP:  66;

MOUNT PLEASANT CLEAR     62  61  96 S6        30.03S
6HR MIN TEMP:  61; 6HR MAX TEMP:  64;

GILMER         PTCLDY    61  60  95 S6        30.03S
6HR MIN TEMP:  61; 6HR MAX TEMP:  64;

MINEOLA        FAIR      64  63  94 S6        30.03S
TYLER          CLOUDY    63  60  90 S7        30.04R
6HR MIN TEMP:  61; 6HR MAX TEMP:  66;

LONGVIEW       PTCLDY    60  58  92 S8        30.04R
6HR MIN TEMP:  59; 6HR MAX TEMP:  65;

MARSHALL         N/A     61  59  92 S6        30.06S
6HR MIN TEMP:  61; 6HR MAX TEMP:  66;

ATHENS         CLOUDY    63  61  94 CALM      30.04R
PALESTINE      CLOUDY    65  62  91 S5        30.06R
JACKSONVILLE   CLOUDY    62  61  96 SW6       30.08R
HENDERSON      MOCLDY    59  59 100 CALM      30.07R
6HR MIN TEMP:  59; 6HR MAX TEMP:  65;

NACOGDOCHES    CLOUDY    63  61  94 SW6       30.07R
6HR MIN TEMP:  61; 6HR MAX TEMP:  64;

LUFKIN         CLOUDY    67  62  84 SW10      30.06R
6HR MIN TEMP:  65; 6HR MAX TEMP:  68;

$$

SUPPLEMENTAL OBSERVATIONS (CENTRAL)

CITY           SKY/WX    TMP DP  RH WIND       PRES   REMARKS
LAKE TEXOMA      N/A     63  59  88 S2          N/A
PAT MAYSE LAKE   N/A    N/A N/A N/A SE12        N/A
GREENVILLE       N/A     64  59  82 S9          N/A
CEDAR HILL       N/A     66  63  88 S8G16       N/A
ATHENS           N/A     64  59  82 SW3         N/A
LAKE LIMESTONE   N/A     66  63  88 SW7         N/A
MCGREGOR         N/A     66  61  82 SW3         N/A
TEMPLE           N/A     66  61  82 S9          N/A
$$

SUPPLEMENTAL OBSERVATIONS (WEST)

CITY           SKY/WX    TMP DP  RH WIND       PRES   REMARKS
MILLERS CREEK    N/A     54  50  87 SW6         N/A
POSSUM KINGDOM   N/A     61  55  82 CALM        N/A
GRANBURY         N/A     64  61  88 S7          N/A
COMANCHE         N/A     64  63  94 SW7G17      N/A
HAMBY            N/A     63  59  88 SW5         N/A


USA.gov is the U.S. government's official web portal to all federal, state and local government web resources and services.